軌道要素
Epoch 2021 July 5.0 TT = JDT 2459400.5
T 2021 July 11.29817 TT Rudenko
q 1.0004987 (2000.0) P Q
n 0.18503578 Peri. 343.30132 -0.99406572 -0.10322896
a 3.0499934 Node 190.94595 +0.10835591 -0.96750240
e 0.6719669 Incl. 10.40977 -0.00960976 -0.23083087
P 5.33
From 1064 observations 2016 Apr. 5-2021 Aug. 29, mean residual 0".4.
Nongravitational parameters A1 = +0.84, A2 = -0.7712.
|